Regional Weather Roundup
Issued by NWS Cleveland, OH

Home | Current Version | Previous Version | Text Only | Print | Product List | Glossary Off
Versions: 1 2 3 4 5 6 7 8 9 10 11 12 13 14 15 16 17 18 19 20 21 22 23 24 25 26 27 28 29 30 31 32 33 34 35 36 37 38 39 40 41 42 43 44 45 46 47 48 49 50

000
ASUS41 KCLE 250312
RWRCLE
OHIO REGIONAL WEATHER ROUNDUP
NATIONAL WEATHER SERVICE WILMINGTON, OH
1000 PM EST FRI FEB 24 2017

NOTE: "FAIR" INDICATES FEW OR NO CLOUDS BELOW 12,000 FEET WITH NO
SIGNIFICANT WEATHER AND/OR OBSTRUCTIONS TO VISIBILITY.

OHZ001>008-015>018-024>027-034-035-043-044-250400-
   NORTHWEST OHIO

CITY           SKY/WX    TMP DP  RH WIND       PRES   REMARKS
DEFIANCE       LGT RAIN  54  51  90 W8G17     29.49R
FINDLAY        TSTM      62  53  72 S23G31    29.45S
TOLEDO EXPRESS TSTM      60  54  80 SW9       29.44S
TOLEDO EXEC    FAIR      61  54  77 SW9       29.43F
LIMA           RAIN      60  55  83 SW16      29.50R
$$

OHZ009>014-019>023-028>033-038-089-250400-
   NORTHEAST OHIO

CITY           SKY/WX    TMP DP  RH WIND       PRES   REMARKS
CLE-HOPKINS    TSTM      64  48  56 W16       29.55R
CLE-LAKEFRONT  CLOUDY    55  45  68 W7        29.53R
CUY CO. ARPT   MOCLDY   N/A N/A N/A NE8       29.54S
LORAIN-ELYRIA  LGT RAIN  59  53  80 SW8       29.50F
ASHTABULA      FAIR      67  48  50 S9        29.53F
AKRON-CANTON   FAIR      64  48  56 SE12      29.54F
WOOSTER        MOCLDY    63  49  60 S6        29.52F
MANSFIELD      TSTM      59  55  87 W16G25    29.56R FOG
YOUNGSTOWN     CLOUDY    65  47  52 SE6       29.56F
$$

OHZ042-051>053-060>062-070>072-077>081-250400-
  SOUTHWEST OHIO

CITY           SKY/WX    TMP DP  RH WIND       PRES   REMARKS
CINC-COVINGTON CLOUDY    61  57  87 SW10      29.57S
CINC-LUNKEN    CLOUDY    61  58  90 SW7       29.57R
HAMILTON       MOCLDY    62  58  86 SW7G16    29.55S
DAYTON         CLOUDY    60  55  83 S12       29.53F
WRIGHT-PAT AFB LGT RAIN  60  60 100 S8        29.53S
DAYTON GENERAL MOCLDY    61  56  83 SW9       29.54S
WILMINGTON     LGT RAIN  59  56  89 SW14      29.55F
$$

OHZ036-037-039>041-045>050-054>059-063>069-073>076-082>088-250400-
  CENTRAL AND SOUTHEAST OHIO

CITY           SKY/WX    TMP DP  RH WIND       PRES   REMARKS
COLUMBUS       CLOUDY    69  52  54 S7        29.52S
OSU AIRPORT    LGT RAIN  60  57  89 W14G31    29.54R
BOLTON FIELD   CLOUDY    63  55  75 W12       29.54R
RICKENBACK AFB MOCLDY    66  50  57 S8        29.52F
NEWARK         CLOUDY    69  48  47 S7        29.52F
MARION         LGT RAIN  59  55  87 S14G23    29.52S
LANCASTER      MOCLDY    72  49  44 S10       29.54F
ZANESVILLE     FAIR      68  47  46 S12       29.55F
NEW PHILLY     FAIR      57  50  77 SE9       29.56F
$$



USA.gov is the U.S. government's official web portal to all federal, state and local government web resources and services.